Simultaneous Nadir Overpasses (SNOs) Predictions

Prediction of SNOs between GOES-14 and NOAA-20 Satellite Orbit:

Table of predicted SNOs for the next 14.0 days since TLE Epoch: 11/2/2024
Index Date Time (GOES-14) GOES-14 Lat,Lon NOAA-20 Lat,Lon Distance(km) Time Diff (sec)
1 11/03/2024 08:56:50 -0.05,-108.62 0.89,-112.84 480.79 80
2 11/04/2024 08:35:26 -0.06,-108.62 -0.15,-108.32 35.27 80
3 11/06/2024 20:41:16 0.05,-108.55 -0.06,-109.08 60.48 80
4 11/07/2024 20:19:50 0.06,-108.55 0.94,-104.55 455.60 80
5 11/09/2024 08:44:17 -0.05,-108.61 0.24,-109.81 137.75 80
6 11/10/2024 08:22:51 -0.06,-108.60 -0.78,-105.28 378.12 80
7 11/11/2024 20:47:26 0.04,-108.53 -0.40,-110.58 233.52 80
8 11/12/2024 20:26:01 0.05,-108.53 0.63,-106.05 282.86 80
9 11/14/2024 08:50:26 -0.03,-108.59 0.58,-111.31 309.52 80
10 11/15/2024 08:29:01 -0.04,-108.58 -0.46,-106.78 206.43 80
